Tracking 31027 objects as of 19-Jul-2025
HD Live streaming from Space Station
objects crossing your sky now

STARLINK-5464

Track STARLINK-5464 now!
10-day predictions
STARLINK-5464 is classified as:


NORAD ID: 54758
Int'l Code: 2022-175A
Perigee: 546.1 km
Apogee: 547.7 km
Inclination: 53.2 °
Period: 95.4 minutes
Semi major axis: 6917 km
RCS: Unknown
Launch date: December 17, 2022
Source: United States (US)
Launch site: AIR FORCE EASTERN TEST RANGE (AFETR)
Your satellite tracking list
DELTA 1 DEB
Track 1 satellite(s)




NASA's NSSDC Master Catalog

Two Line Element Set (TLE):
1 54758U 22175A   25199.90934518  .00000067  00000-0  22281-4 0  9993
2 54758  53.2192   8.7963 0001165  95.9389 264.1736 15.08832996144696
Source of the keplerian elements: AFSPC